Location: Unspecified
(0.0000°N, 0.0000°E)
Time: 00:22:37
(UTC+00:00)

Transit 2A - Visible Passes

Search period start: 17 May 2025 00:00
Search period end: 27 May 2025 00:00
Orbit: 600 x 946 km, 66.7° (Epoch: 16 May)

Date Brightness Start Highest point End Pass type
(mag) Time Alt. Az. Time Alt. Az. Time Alt. Az.
17 May 8.6 05:05:15 10° SSE 05:09:06 19° ESE 05:12:42 10° ENE visible
18 May 9.0 04:32:10 10° ESE 04:33:00 10° ESE 04:33:49 10° ESE visible
18 May 8.7 18:44:33 10° WNW 18:48:03 18° WSW 18:51:45 10° SSW visible
20 May 6.8 04:58:47 10° S 05:04:10 51° ESE 05:08:59 10° NE visible
21 May 7.8 04:23:24 10° S 04:28:07 29° ESE 04:32:27 10° NE visible
22 May 8.5 03:48:41 10° SSE 03:52:03 16° ESE 03:55:13 10° ENE visible
22 May 6.8 05:30:15 10° SW 05:34:56 30° WNW 05:39:13 10° N visible
23 May 6.1 04:54:42 15° SW 04:59:02 55° WNW 05:03:49 10° N visible
24 May 5.9 04:20:47 35° SSW 04:23:05 81° ESE 04:27:59 10° NNE visible
25 May 6.8 03:46:46 43° ESE 03:47:06 44° ESE 03:51:47 10° NE visible
25 May 7.9 05:29:32 10° WNW 05:29:40 10° WNW 05:29:49 10° WNW visible
26 May 8.1 03:12:39 21° E 03:12:39 21° E 03:15:06 10° ENE visible
26 May 7.3 04:53:04 19° W 04:53:47 19° WNW 04:57:14 10° NNW visible
